Weather History for Long Prairie, MN

Change the Weather History Date:

Tuesday, January 1, 2013

  Actual Average (KAXN) Record (KAXN)
Temperature  
Mean Temperature 0 °F -  
Max Temperature 21 °F 16 °F 39 °F (1964)
Min Temperature -20 °F -1 °F -31 °F (1974)
Degree Days  
Heating Degree Days 64    
Moisture  
Dew Point 0 °F    
Average Humidity 85    
Maximum Humidity 93    
Minimum Humidity 70    
Precipitation  
Precipitation 0.00 in - - ()
Sea Level Pressure  
Sea Level Pressure 30.09 in    
Wind  
Wind Speed 4 mph (South)    
Max Wind Speed 10 mph    
Max Gust Speed 16 mph    
Visibility 9 miles    
Events Snow    
Averages and records for this station are not official NWS values.
T = Trace of Precipitation, MM = Missing Value Source: NWS Daily Summary

Daily Weather History Graph

Daily Weather History Graph

Search for Another Location

Airport:

Trip Planner

Search our weather history database for the weather conditions in past years. The results will help you decide how hot, cold, wet, or windy it might be!

Date:

Astronomy

Jan. 01, 2013 Rise Set
Actual Time 8:01 AM CST 4:45 PM CST
Civil Twilight 7:26 AM CST 5:19 PM CST
Nautical Twilight 6:49 AM CST 5:57 PM CST
Astronomical Twilight 6:12 AM CST 6:33 PM CST
Moon 9:33 PM CST (1/1) 9:59 AM CST (1/1)
Length of Visible Light 9h 53m
Length of Day
8h 44m
Waning Gibbous, 83% of the Moon is Illuminated
Jan 1
Waning Gibbous
Jan 4
Last Quarter
Jan 11
New
Jan 18
First Quarter
Jan 26
Full

Hourly Weather History & Observations

Time (CST) Temp. Windchill Dew Point Humidity Pressure Visibility Wind Dir Wind Speed Gust Speed Precip Events Conditions
12:15 AM -16.6 °F - -22.0 °F 76% 30.21 in 10.0 mi Calm Calm - N/A   Clear
12:35 AM -18.4 °F -28.9 °F -23.8 °F 76% 30.21 in 10.0 mi SSW 3.5 mph - N/A   Clear
12:55 AM -16.6 °F - -22.0 °F 76% 30.21 in 10.0 mi Calm Calm - N/A   Clear
1:15 AM -18.4 °F - -23.8 °F 76% 30.20 in 10.0 mi Calm Calm - N/A   Clear
1:35 AM -16.6 °F - -22.0 °F 76% 30.20 in 10.0 mi Calm Calm - N/A   Clear
1:55 AM -16.6 °F - -22.0 °F 76% 30.20 in 10.0 mi Calm Calm - N/A   Clear
2:15 AM -16.6 °F - -22.0 °F 76% 30.20 in 10.0 mi Calm Calm - N/A   Clear
2:35 AM -18.4 °F - -25.6 °F 70% 30.20 in 10.0 mi Calm Calm - N/A   Clear
2:55 AM -18.4 °F -31.4 °F -23.8 °F 76% 30.20 in 10.0 mi South 4.6 mph - N/A   Clear
3:15 AM -16.6 °F -26.8 °F -22.0 °F 76% 30.19 in 10.0 mi SSW 3.5 mph - N/A   Clear
3:35 AM -20.2 °F -30.9 °F -25.6 °F 76% 30.19 in 10.0 mi South 3.5 mph - N/A   Clear
3:55 AM -18.4 °F -28.9 °F -23.8 °F 76% 30.20 in 10.0 mi South 3.5 mph - N/A   Clear
4:15 AM -18.4 °F - -23.8 °F 76% 30.19 in 10.0 mi Calm Calm - N/A   Clear
4:35 AM -16.6 °F - -22.0 °F 76% 30.19 in 10.0 mi Calm Calm - N/A   Clear
4:55 AM -16.6 °F - -22.0 °F 76% 30.19 in 10.0 mi Calm Calm - N/A   Clear
5:15 AM -18.4 °F - -23.8 °F 76% 30.19 in 10.0 mi Calm Calm - N/A   Clear
5:35 AM -20.2 °F - -25.6 °F 76% 30.19 in 10.0 mi Calm Calm - N/A   Clear
5:55 AM -16.6 °F - -22.0 °F 76% 30.19 in 10.0 mi Calm Calm - N/A   Mostly Cloudy
6:15 AM -14.8 °F - -18.4 °F 84% 30.19 in 10.0 mi Calm Calm - N/A   Overcast
6:35 AM -13.0 °F - -16.6 °F 84% 30.18 in 7.0 mi Calm Calm - N/A Snow Light Snow
6:55 AM -9.4 °F - -14.8 °F 77% 30.18 in 7.0 mi Calm Calm - N/A Snow Light Snow
7:15 AM -5.8 °F - -9.4 °F 84% 30.17 in 7.0 mi Calm Calm - N/A Snow Light Snow
7:35 AM -5.8 °F -16.7 °F -9.4 °F 84% 30.17 in 7.0 mi South 4.6 mph - N/A Snow Light Snow
7:55 AM -4.0 °F -14.6 °F -7.6 °F 85% 30.17 in 10.0 mi South 4.6 mph - N/A Snow Light Snow
8:15 AM -4.0 °F -17.8 °F -7.6 °F 85% 30.16 in 10.0 mi South 6.9 mph - N/A   Overcast
8:35 AM -4.0 °F -19.0 °F -7.6 °F 85% 30.15 in 10.0 mi South 8.1 mph - N/A   Overcast
8:55 AM -2.2 °F -15.6 °F -5.8 °F 85% 30.15 in 10.0 mi South 6.9 mph - N/A   Overcast
9:15 AM -0.4 °F -13.4 °F -4.0 °F 85% 30.15 in 10.0 mi South 6.9 mph - N/A   Overcast
9:35 AM 1.4 °F -9.9 °F -4.0 °F 78% 30.15 in 10.0 mi South 5.8 mph - N/A   Overcast
9:55 AM 1.4 °F -11.3 °F -2.2 °F 85% 30.15 in 3.0 mi South 6.9 mph - N/A Snow Light Snow
10:15 AM 3.2 °F -7.8 °F -0.4 °F 85% 30.14 in 3.0 mi South 5.8 mph - N/A Snow Light Snow
10:35 AM 3.2 °F -6.2 °F 1.4 °F 92% 30.14 in 2.0 mi South 4.6 mph - N/A Snow Light Snow
10:55 AM 5.0 °F -6.9 °F 1.4 °F 85% 30.13 in 1.5 mi South 6.9 mph - N/A Snow Light Snow
11:15 AM 5.0 °F -4.1 °F 3.2 °F 92% 30.12 in 1.5 mi South 4.6 mph - N/A Snow Light Snow
11:35 AM 8.6 °F 0.1 °F 5.0 °F 85% 30.11 in 1.5 mi South 4.6 mph - N/A Snow Light Snow
11:55 AM 8.6 °F -1.3 °F 6.8 °F 92% 30.10 in 4.0 mi South 5.8 mph - N/A Snow Light Snow
12:15 PM 10.4 °F -0.4 °F 8.6 °F 92% 30.09 in 4.0 mi South 6.9 mph - N/A Snow Light Snow
12:35 PM 10.4 °F -2.4 °F 8.6 °F 92% 30.07 in 4.0 mi South 9.2 mph - N/A Snow Light Snow
12:55 PM 12.2 °F 1.7 °F 8.6 °F 85% 30.07 in 7.0 mi South 6.9 mph - N/A   Overcast
1:15 PM 12.2 °F 1.7 °F 8.6 °F 85% 30.06 in 10.0 mi South 6.9 mph - N/A   Overcast
1:35 PM 14.0 °F 3.9 °F 10.4 °F 86% 30.06 in 10.0 mi SSW 6.9 mph - N/A   Overcast
1:55 PM 14.0 °F 2.9 °F 10.4 °F 86% 30.05 in 10.0 mi South 8.1 mph - N/A   Overcast
2:15 PM 14.0 °F 3.9 °F 10.4 °F 86% 30.05 in 10.0 mi South 6.9 mph - N/A   Overcast
2:35 PM 14.0 °F 2.9 °F 10.4 °F 86% 30.05 in 10.0 mi South 8.1 mph - N/A   Overcast
2:55 PM 14.0 °F 5.1 °F 10.4 °F 86% 30.05 in 10.0 mi South 5.8 mph - N/A   Overcast
3:15 PM 14.0 °F 5.1 °F 10.4 °F 86% 30.05 in 10.0 mi South 5.8 mph - N/A   Overcast
3:35 PM 14.0 °F 2.9 °F 10.4 °F 86% 30.05 in 10.0 mi South 8.1 mph - N/A   Overcast
3:55 PM 14.0 °F 3.9 °F 10.4 °F 86% 30.04 in 10.0 mi South 6.9 mph - N/A   Overcast
4:15 PM 14.0 °F 5.1 °F 12.2 °F 93% 30.04 in 10.0 mi South 5.8 mph - N/A   Overcast
4:35 PM 14.0 °F 5.1 °F 12.2 °F 93% 30.04 in 10.0 mi South 5.8 mph - N/A   Overcast
4:55 PM 15.8 °F 7.2 °F 12.2 °F 86% 30.03 in 10.0 mi South 5.8 mph - N/A   Overcast
5:15 PM 15.8 °F 8.6 °F 14.0 °F 93% 30.03 in 10.0 mi South 4.6 mph - N/A   Overcast
5:35 PM 17.6 °F 12.3 °F 14.0 °F 86% 30.02 in 10.0 mi South 3.5 mph - N/A   Overcast
5:55 PM 17.6 °F 12.3 °F 14.0 °F 86% 30.02 in 10.0 mi South 3.5 mph - N/A   Overcast
6:15 PM 17.6 °F 10.7 °F 15.8 °F 93% 30.01 in 10.0 mi South 4.6 mph - N/A   Overcast
6:35 PM 17.6 °F 9.3 °F 15.8 °F 93% 30.00 in 10.0 mi South 5.8 mph - N/A   Overcast
6:55 PM 19.4 °F 10.4 °F 17.6 °F 93% 29.99 in 10.0 mi South 6.9 mph - N/A   Overcast
7:15 PM 19.4 °F 9.5 °F 17.6 °F 93% 29.98 in 10.0 mi South 8.1 mph - N/A   Overcast
7:35 PM 19.4 °F 8.6 °F 17.6 °F 93% 29.98 in 10.0 mi South 9.2 mph - N/A   Overcast
7:55 PM 19.4 °F 9.5 °F 17.6 °F 93% 29.97 in 10.0 mi South 8.1 mph - N/A   Overcast
8:15 PM 19.4 °F 7.9 °F 17.6 °F 93% 29.97 in 10.0 mi South 10.4 mph - N/A   Overcast
8:35 PM 21.2 °F 10.1 °F 17.6 °F 86% 29.96 in 10.0 mi South 10.4 mph - N/A   Overcast
8:55 PM 21.2 °F 10.9 °F 17.6 °F 86% 29.95 in 10.0 mi South 9.2 mph - N/A   Overcast
9:15 PM 21.2 °F 10.1 °F 17.6 °F 86% 29.95 in 10.0 mi South 10.4 mph - N/A   Overcast
9:35 PM 21.2 °F 10.1 °F 17.6 °F 86% 29.94 in 10.0 mi South 10.4 mph - N/A   Overcast
9:55 PM 19.4 °F 7.9 °F 17.6 °F 93% 29.94 in 10.0 mi South 10.4 mph 16.1 mph N/A   Overcast
10:15 PM 19.4 °F 7.9 °F 17.6 °F 93% 29.94 in 10.0 mi South 10.4 mph - N/A   Overcast
10:35 PM 19.4 °F 9.5 °F 17.6 °F 93% 29.94 in 10.0 mi SSW 8.1 mph - N/A   Overcast
10:55 PM 19.4 °F 7.9 °F 17.6 °F 93% 29.94 in 10.0 mi SSW 10.4 mph - N/A   Overcast
11:15 PM 21.2 °F 10.9 °F 17.6 °F 86% 29.93 in 10.0 mi SSW 9.2 mph - N/A   Overcast
11:35 PM 19.4 °F 7.9 °F 17.6 °F 93% 29.93 in 10.0 mi South 10.4 mph - N/A   Overcast
11:55 PM 21.2 °F 10.9 °F 17.6 °F 86% 29.93 in 10.0 mi SSW 9.2 mph - N/A   Overcast